H1 CPF 1 NER 2021 12 10 9 8441 glonass107 H2 0706501 9107 32393 2021 12 10 0 0 0 2021 12 13 23 45 0 900 1 1 0 0 0 H9 10 0 59558 0.00000 0 11645323.843 8071937.086 -21227894.079 10 0 59558 900.00000 0 9024294.502 8627915.037 -22260388.389 10 0 59558 1800.00000 0 6354275.529 9401271.126 -22861317.403 10 0 59558 2700.00000 0 3703547.301 10382274.237 -23019037.003 10 0 59558 3600.00000 0 1138028.365 11549226.889 -22730475.222 10 0 59558 4500.00000 0 -1281233.970 12869265.573 -22001192.362 10 0 59558 5400.00000 0 -3500363.237 14299645.451 -20845276.828 10 0 59558 6300.00000 0 -5474649.495 15789456.855 -19285078.265 10 0 59558 7200.00000 0 -7170159.302 17281702.953 -17350782.568 10 0 59558 8100.00000 0 -8564894.077 18715652.847 -15079836.063 10 0 59558 9000.00000 0 -9649449.406 20029372.574 -12516228.965 10 0 59558 9900.00000 0 -10427148.351 21162328.647 -9709651.016 10 0 59558 10800.00000 0 -10913643.692 22057955.312 -6714534.728 10 0 59558 11700.00000 0 -11136006.149 22666077.684 -3589004.036 10 0 59558 12600.00000 0 -11131337.203 22945088.491 -393748.415 10 0 59558 13500.00000 0 -10944965.274 22863786.079 2809155.819 10 0 59558 14400.00000 0 -10628301.741 22402795.273 5957453.984 10 0 59558 15300.00000 0 -10236447.886 21555510.036 8989927.260 10 0 59558 16200.00000 0 -9825654.543 20328516.927 11847588.491 10 0 59558 17100.00000 0 -9450742.684 18741480.238 14474835.621 10 0 59558 18000.00000 0 -9162594.903 16826492.455 16820539.570 10 0 59558 18900.00000 0 -9005824.805 14626916.297 18839044.784 10 0 59558 19800.00000 0 -9016723.780 12195766.008 20491062.575 10 0 59558 20700.00000 0 -9221572.785 9593695.123 21744439.439 10 0 59558 21600.00000 0 -9635391.261 6886674.359 22574785.361 10 0 59558 22500.00000 0 -10261176.704 4143456.209 22965949.790 10 0 59558 23400.00000 0 -11089667.601 1432931.844 22910336.128 10 0 59558 24300.00000 0 -12099640.227 -1178509.872 22409048.725 10 0 59558 25200.00000 0 -13258727.249 -3629511.585 21471869.655 10 0 59558 26100.00000 0 -14524723.975 -5866059.931 20117065.847 10 0 59558 27000.00000 0 -15847327.443 -7843485.655 18371030.430 10 0 59558 27900.00000 0 -17170235.273 -9528068.876 16267765.330 10 0 59558 28800.00000 0 -18433515.867 -10898183.544 13848215.333 10 0 59558 29700.00000 0 -19576150.077 -11944934.661 11159466.715 10 0 59558 30600.00000 0 -20538637.118 -12672263.159 8253826.235 10 0 59558 31500.00000 0 -21265554.701 -13096515.676 5187798.811 10 0 59558 32400.00000 0 -21707965.328 -13245499.143 2020984.150 10 0 59558 33300.00000 0 -21825567.164 -13157061.706 -1185085.720 10 0 59558 34200.00000 0 -21588498.760 -12877261.401 -4368144.857 10 0 59558 35100.00000 0 -20978721.567 -12458201.292 -7466403.999 10 0 59558 36000.00000 0 -19990922.113 -11955623.596 -10419749.539 10 0 59558 36900.00000 0 -18632895.954 -11426365.214 -13170907.358 10 0 59558 37800.00000 0 -16925397.347 -10925782.547 -15666549.075 10 0 59558 38700.00000 0 -14901460.869 -10505254.423 -17858319.637 10 0 59558 39600.00000 0 -12605223.241 -10209868.291 -19703766.868 10 0 59558 40500.00000 0 -10090294.174 -10076386.807 -21167155.841 10 0 59558 41400.00000 0 -7417743.508 -10131579.978 -22220153.224 10 0 59558 42300.00000 0 -4653787.637 -10390992.555 -22842369.295 10 0 59558 43200.00000 0 -1867270.231 -10858198.202 -23021747.967 10 0 59558 44100.00000 0 872959.451 -11524571.690 -22754797.975 10 0 59558 45000.00000 0 3500663.246 -12369588.928 -22046661.016 10 0 59558 45900.00000 0 5954718.682 -13361642.797 -20911015.612 10 0 59558 46800.00000 0 8181409.002 -14459341.418 -19369818.136 10 0 59558 47700.00000 0 10136404.711 -15613235.404 -17452885.406 10 0 59558 48600.00000 0 11786355.388 -16767902.711 -15197326.025 10 0 59558 49500.00000 0 13110026.378 -17864304.620 -12646830.436 10 0 59558 50400.00000 0 14098933.530 -18842314.682 -9850832.435 10 0 59558 51300.00000 0 14757449.940 -19643314.848 -6863557.503 10 0 59558 52200.00000 0 15102380.608 -20212749.711 -3742975.594 10 0 59558 53100.00000 0 15162023.018 -20502531.030 -549678.404 10 0 59558 54000.00000 0 14974753.494 -20473190.598 2654297.306 10 0 59558 54900.00000 0 14587199.151 -20095689.699 5806677.279 10 0 59558 55800.00000 0 14052072.934 -19352807.618 8846164.289 10 0 59558 56700.00000 0 13425763.720 -18240049.301 11713635.406 10 0 59558 57600.00000 0 12765783.904 -16766032.388 14353298.064 10 0 59558 58500.00000 0 12128183.060 -14952335.946 16713781.652 10 0 59558 59400.00000 0 11565037.746 -12832815.904 18749142.827 10 0 59558 60300.00000 0 11122124.280 -10452414.712 20419764.504 10 0 59558 61200.00000 0 10836873.437 -7865514.198 21693130.666 10 0 59558 62100.00000 0 10736694.065 -5133899.734 22544461.777 10 0 59558 63000.00000 0 10837736.801 -2324420.125 22957198.431 10 0 59558 63900.00000 0 11144150.418 493559.535 22923323.853 10 0 59558 64800.00000 0 11647862.367 3250806.309 22443519.120 10 0 59558 65700.00000 0 12328892.923 5880859.243 21527148.227 10 0 59558 66600.00000 0 13156189.692 8322550.995 20192073.378 10 0 59558 67500.00000 0 14088947.270 10522306.834 18464304.220 10 0 59558 68400.00000 0 15078356.277 12436125.911 16377487.908 10 0 59558 69300.00000 0 16069707.808 14031162.995 13972250.060 10 0 59558 70200.00000 0 17004764.278 15286845.779 11295399.570 10 0 59558 71100.00000 0 17824296.320 16195482.364 8399012.963 10 0 59558 72000.00000 0 18470678.321 16762334.943 5339416.482 10 0 59558 72900.00000 0 18890432.714 17005158.265 2176086.154 10 0 59558 73800.00000 0 19036615.316 16953223.991 -1029512.369 10 0 59558 74700.00000 0 18870940.823 16645873.624 -4215120.980 10 0 59558 75600.00000 0 18365558.596 16130662.522 -7318899.652 10 0 59558 76500.00000 0 17504403.778 15461174.509 -10280626.487 10 0 59558 77400.00000 0 16284066.782 14694600.223 -13042863.733 10 0 59558 78300.00000 0 14714144.479 13889181.963 -15552067.300 10 0 59558 79200.00000 0 12817058.142 13101632.968 -17759618.594 10 0 59558 80100.00000 0 10627345.531 12384639.788 -19622759.231 10 0 59558 81000.00000 0 8190456.197 11784552.475 -21105411.357 10 0 59558 81900.00000 0 5561099.551 11339359.181 -22178868.617 10 0 59558 82800.00000 0 2801213.629 11077029.587 -22822345.315 10 0 59558 83700.00000 0 -22362.169 11014296.102 -23023374.023 10 0 59558 84600.00000 0 -2840415.079 11155923.489 -22778044.572 10 0 59558 85500.00000 0 -5583984.193 11494497.304 -22091080.186 10 0 59559 0.00000 0 -8186975.317 12010740.027 -20975749.421 10 0 59559 900.00000 0 -10588659.828 12674342.267 -19453614.598 10 0 59559 1800.00000 0 -12735951.591 13445274.030 -17554122.601 10 0 59559 2700.00000 0 -14585373.147 14275522.702 -15314043.015 10 0 59559 3600.00000 0 -16104626.693 15111184.887 -12776764.894 10 0 59559 4500.00000 0 -17273706.412 15894825.124 -9991464.236 10 0 59559 5400.00000 0 -18085505.872 16568002.694 -7012157.431 10 0 59559 6300.00000 0 -18545895.357 17073860.343 -3896658.259 10 0 59559 7200.00000 0 -18673265.956 17359665.603 -705458.315 10 0 59559 8100.00000 0 -18497559.722 17379197.010 2499447.594 10 0 59559 9000.00000 0 -18058826.851 17094873.603 5655768.135 10 0 59559 9900.00000 0 -17405370.868 16479536.652 8702130.223 10 0 59559 10800.00000 0 -16591560.473 15517806.982 11579277.746 10 0 59559 11700.00000 0 -15675400.783 14206959.083 14231230.221 10 0 59559 12600.00000 0 -14715967.141 12557273.623 16606378.049 10 0 59559 13500.00000 0 -13770810.395 10591851.949 18658492.517 10 0 59559 14400.00000 0 -12893443.797 8345898.918 20347630.382 10 0 59559 15300.00000 0 -12131018.097 5865502.947 21640915.076 10 0 59559 16200.00000 0 -11522283.336 3205963.251 22513179.185 10 0 59559 17100.00000 0 -11095923.541 429733.320 22947455.699 10 0 59559 18000.00000 0 -10869334.653 -2395934.111 22935308.485 10 0 59559 18900.00000 0 -10847897.151 -5201543.006 22476995.716 10 0 59559 19800.00000 0 -11024773.847 -7918004.835 21581463.186 10 0 59559 20700.00000 0 -11381241.097 -10479274.171 20266167.769 10 0 59559 21600.00000 0 -11887539.062 -12824859.830 18556734.553 10 0 59559 22500.00000 0 -12504204.742 -14902107.408 16486454.406 10 0 59559 23400.00000 0 -13183831.016 -16668158.698 14095631.860 10 0 59559 24300.00000 0 -13873176.936 -18091507.029 11430796.175 10 0 59559 25200.00000 0 -14515539.590 -19153084.614 8543791.115 10 0 59559 26100.00000 0 -15053286.808 -19846837.564 5490761.540 10 0 59559 27000.00000 0 -15430443.148 -20179765.901 2331056.938 10 0 59559 27900.00000 0 -15595219.429 -20171428.455 -873926.338 10 0 59559 28800.00000 0 -15502378.504 -19852934.937 -4061941.006 10 0 59559 29700.00000 0 -15115337.054 -19265469.158 -7171099.276 10 0 59559 30600.00000 0 -14407914.414 -18458406.877 -10141073.952 10 0 59559 31500.00000 0 -13365654.548 -17487108.639 -12914266.584 10 0 59559 32400.00000 0 -11986665.277 -16410481.319 -15436920.185 10 0 59559 33300.00000 0 -10281939.256 -15288411.402 -17660155.242 10 0 59559 34200.00000 0 -8275142.884 -14179178.021 -19540909.490 10 0 59559 35100.00000 0 -6001881.443 -13136954.137 -21042764.089 10 0 59559 36000.00000 0 -3508470.394 -12209500.216 -22136641.130 10 0 59559 36900.00000 0 -850263.142 -11436146.367 -22801359.901 10 0 59559 37800.00000 0 1910396.350 -10846146.704 -23024042.031 10 0 59559 38700.00000 0 4706512.449 -10457474.035 -22800358.343 10 0 59559 39600.00000 0 7468972.512 -10276104.755 -22134612.986 10 0 59559 40500.00000 0 10129173.775 -10295823.439 -21039663.289 10 0 59559 41400.00000 0 12621634.950 -10498555.185 -19536676.536 10 0 59559 42300.00000 0 14886485.397 -10855211.896 -17654727.757 10 0 59559 43200.00000 0 16871729.646 -11327017.330 -15430245.444 10 0 59559 44100.00000 0 18535193.939 -11867255.757 -12906314.864 10 0 59559 45000.00000 0 19846074.220 -12423371.190 -10131851.501 10 0 59559 45900.00000 0 20786021.363 -12939329.241 -7160659.641 10 0 59559 46800.00000 0 21349718.385 -13358142.285 -4050393.640 10 0 59559 47700.00000 0 21544925.405 -13624451.321 -861441.582 10 0 59559 48600.00000 0 21391990.448 -13687055.111 2344247.159 10 0 59559 49500.00000 0 20922846.582 -13501279.023 5504367.568 10 0 59559 50400.00000 0 20179537.607 -13031082.389 8557473.933 10 0 59559 51300.00000 0 19212334.572 -12250814.007 11444179.898 10 0 59559 52200.00000 0 18077522.752 -11146540.123 14108319.619 10 0 59559 53100.00000 0 16834952.804 -9716887.243 16498046.639 10 0 59559 54000.00000 0 15545459.807 -7973362.581 18566848.536 10 0 59559 54900.00000 0 14268259.430 -5940137.047 20274457.100 10 0 59559 55800.00000 0 13058431.409 -3653298.470 21587635.930 10 0 59559 56700.00000 0 11964596.632 -1159605.003 22480830.004 10 0 59559 57600.00000 0 11026885.784 1485210.184 22936664.528 10 0 59559 58500.00000 0 10275285.057 4218512.972 22946283.421 10 0 59559 59400.00000 0 9728428.304 6973135.232 22509520.956 10 0 59559 60300.00000 0 9392886.082 9679936.572 21634903.385 10 0 59559 61200.00000 0 9262980.944 12270454.450 20339480.587 10 0 59559 62100.00000 0 9321136.077 14679532.678 18648491.167 10 0 59559 63000.00000 0 9538741.809 16847819.177 16594867.551 10 0 59559 63900.00000 0 9877502.615 18724029.162 14218590.863 10 0 59559 64800.00000 0 10291206.929 20266879.955 11565908.265 10 0 59559 65700.00000 0 10727844.151 21446617.293 8688428.193 10 0 59559 66600.00000 0 11131978.591 22246070.128 5642111.486 10 0 59559 67500.00000 0 11447279.219 22661190.891 2486178.416 10 0 59559 68400.00000 0 11619097.552 22701059.802 -718046.623 10 0 59559 69300.00000 0 11596984.108 22387354.399 -3908329.748 10 0 59559 70200.00000 0 11337036.561 21753307.949 -7022737.844 10 0 59559 71100.00000 0 10803980.021 20842201.864 -10000840.632 10 0 59559 72000.00000 0 9972891.365 19705456.613 -12784880.941 10 0 59559 72900.00000 0 8830494.677 18400402.280 -15320890.579 10 0 59559 73800.00000 0 7375972.972 16987822.969 -17559730.526 10 0 59559 74700.00000 0 5621261.797 15529378.351 -19458035.787 10 0 59559 75600.00000 0 3590811.827 14085010.332 -20979047.443 10 0 59559 76500.00000 0 1320829.661 12710442.983 -22093316.725 10 0 59559 77400.00000 0 -1141972.392 11454879.655 -22779268.383 10 0 59559 78300.00000 0 -3742066.647 10358992.667 -23023613.358 10 0 59559 79200.00000 0 -6417171.572 9453288.613 -22821603.439 10 0 59559 80100.00000 0 -9100600.280 8756916.695 -22177123.368 10 0 59559 81000.00000 0 -11723800.043 8276969.088 -21102618.677 10 0 59559 81900.00000 0 -14218978.961 8008302.018 -19618860.333 10 0 59559 82800.00000 0 -16521712.011 7933884.723 -17754550.165 10 0 59559 83700.00000 0 -18573419.352 8025661.594 -15545773.809 10 0 59559 84600.00000 0 -20323614.735 8245891.398 -13035310.738 10 0 59559 85500.00000 0 -21731830.794 8548907.567 -10271813.721 10 0 59560 0.00000 0 -22769141.179 8883225.659 -7308872.935 10 0 59560 900.00000 0 -23419216.355 9193909.485 -4203980.430 10 0 59560 1800.00000 0 -23678867.367 9425095.548 -1017418.686 10 0 59560 2700.00000 0 -23558056.371 9522569.462 2188910.709 10 0 59560 3600.00000 0 -23079371.701 9436284.333 5352691.426 10 0 59560 4500.00000 0 -22276989.917 9122713.868 8412407.490 10 0 59560 5400.00000 0 -21195168.341 8546939.463 11308544.653 10 0 59560 6300.00000 0 -19886331.525 7684381.595 13984754.028 10 0 59560 7200.00000 0 -18408832.446 6522100.820 16388954.529 10 0 59560 8100.00000 0 -16824482.952 5059611.835 18474352.105 10 0 59560 9000.00000 0 -15195957.737 3309174.606 20200355.427 10 0 59560 9900.00000 0 -13584181.408 1295548.807 21533369.819 10 0 59560 10800.00000 0 -12045808.735 -944779.627 22447453.851 10 0 59560 11700.00000 0 -10630904.076 -3364868.680 22924825.765 10 0 59560 12600.00000 0 -9380917.400 -5909035.046 22956209.933 10 0 59560 13500.00000 0 -8327041.607 -8514942.757 22541016.733 10 0 59560 14400.00000 0 -7489019.607 -11115979.138 21687352.465 10 0 59560 15300.00000 0 -6874450.587 -13643819.392 20411859.230 10 0 59560 16200.00000 0 -6478623.698 -16031073.272 18739387.995 10 0 59560 17100.00000 0 -6284885.123 -18213903.731 16702511.261 10 0 59560 18000.00000 0 -6265521.942 -20134508.533 14340884.956 10 0 59560 18900.00000 0 -6383124.365 -21743361.532 11700472.106 10 0 59560 19800.00000 0 -6592367.645 -23001120.420 8832643.576 10 0 59560 20700.00000 0 -6842137.334 -23880121.635 5793173.789 10 0 59560 21600.00000 0 -7077906.951 -24365400.619 2641151.315 10 0 59560 22500.00000 0 -7244266.606 -24455195.586 -562173.981 10 0 59560 23400.00000 0 -7287494.816 -24160914.679 -3754584.228 10 0 59560 24300.00000 0 -7158064.076 -23506569.097 -6874103.642 10 0 59560 25200.00000 0 -6812973.763 -22527697.130 -9860201.552 10 0 59560 26100.00000 0 -6217811.458 -21269825.361 -12654964.744 10 0 59560 27000.00000 0 -5348455.417 -19786532.528 -15204216.453 10 0 59560 27900.00000 0 -4192346.179 -18137197.878 -17458560.655 10 0 59560 28800.00000 0 -2749273.546 -16384528.695 -19374331.914 10 0 59560 29700.00000 0 -1031645.444 -14591970.474 -20914433.222 10 0 59560 30600.00000 0 935773.242 -12821107.602 -22049046.552 10 0 59560 31500.00000 0 3116641.750 -11129162.505 -22756203.268 10 0 59560 32400.00000 0 5464312.958 -9566696.652 -23022204.305 10 0 59560 33300.00000 0 7923539.788 -8175608.241 -22841882.639 10 0 59560 34200.00000 0 10432548.885 -6987509.008 -22218703.375 10 0 59560 35100.00000 0 12925396.958 -6022546.775 -21164699.607 10 0 59560 36000.00000 0 15334513.393 -5288721.981 -19700244.968 10 0 59560 36900.00000 0 17593324.828 -4781726.088 -17853666.688 10 0 59560 37800.00000 0 19638853.722 -4485308.139 -15660705.789 10 0 59560 38700.00000 0 21414183.748 -4372153.855 -13163833.802 10 0 59560 39600.00000 0 22870689.704 -4405240.314 -10411438.268 10 0 59560 40500.00000 0 23969939.184 -4539609.242 -7456891.813 10 0 59560 41400.00000 0 24685186.448 -4724484.222 -4357522.060 10 0 59560 42300.00000 0 25002395.579 -4905642.425 -1173501.940 10 0 59560 43200.00000 0 24920749.603 -5027940.384 2033318.277 10 0 59560 44100.00000 0 24452623.640 -5037886.496 5200614.462 10 0 59560 45000.00000 0 23623022.703 -4886150.651 8266803.736 10 0 59560 45900.00000 0 22468507.383 -4529903.729 11172247.069 10 0 59560 46800.00000 0 21035652.313 -3934886.696 13860415.285 10 0 59560 47700.00000 0 19379102.196 -3077120.395 16278995.016 10 0 59560 48600.00000 0 17559307.156 -1944182.224 18380912.490 10 0 59560 49500.00000 0 15640032.761 -535994.225 20125254.731 10 0 59560 50400.00000 0 13685749.508 1134912.167 21478069.823 10 0 59560 51300.00000 0 11759011.527 3043667.343 22413030.524 10 0 59560 52200.00000 0 9917934.488 5153860.706 22911948.289 10 0 59560 53100.00000 0 8213878.414 7418831.503 22965127.695 10 0 59560 54000.00000 0 6689432.193 9783400.297 22571554.545 10 0 59560 54900.00000 0 5376783.697 12185969.435 21738914.099 10 0 59560 55800.00000 0 4296543.125 14560905.243 20483439.188 10 0 59560 56700.00000 0 3457067.877 16841102.903 18829591.293 10 0 59560 57600.00000 0 2854316.133 18960627.132 16809580.826 10 0 59560 58500.00000 0 2472233.956 20857318.477 14462736.098 10 0 59560 59400.00000 0 2283658.225 22475256.470 11834733.365 10 0 59560 60300.00000 0 2251695.855 23766976.810 8976703.140 10 0 59560 61200.00000 0 2331519.743 24695349.983 5944230.527 10 0 59560 62100.00000 0 2472504.223 25235043.058 2796269.434 10 0 59560 63000.00000 0 2620608.548 25373503.974 -406007.766 10 0 59560 63900.00000 0 2720906.582 25111427.681 -3600402.116 10 0 59560 64800.00000 0 2720154.823 24462685.521 -6724897.918 10 0 59560 65700.00000 0 2569289.508 23453721.673 -9718866.657 10 0 59560 66600.00000 0 2225746.799 22122442.929 -12524241.347 10 0 59560 67500.00000 0 1655507.753 20516649.150 -15086638.617 10 0 59560 68400.00000 0 834781.582 18692070.751 -17356407.086 10 0 59560 69300.00000 0 -248743.873 16710095.711 -19289582.206 10 0 59560 70200.00000 0 -1595137.319 14635281.144 -20848729.906 10 0 59560 71100.00000 0 -3191977.423 12532752.965 -22003663.636 10 0 59560 72000.00000 0 -5014635.387 10465601.521 -22732021.836 10 0 59560 72900.00000 0 -7027075.811 8492380.746 -23019695.587 10 0 59560 73800.00000 0 -9183143.612 6664813.837 -22861098.869 10 0 59560 74700.00000 0 -11428284.641 5025799.819 -22259276.598 10 0 59560 75600.00000 0 -13701629.866 3607802.698 -21225848.474 10 0 59560 76500.00000 0 -15938357.906 2431689.211 -19780789.426 10 0 59560 77400.00000 0 -18072238.971 1506062.676 -17952050.327 10 0 59560 78300.00000 0 -20038255.550 827120.006 -15775025.483 10 0 59560 79200.00000 0 -21775191.631 379037.280 -13291876.116 10 0 59560 80100.00000 0 -23228083.040 134867.440 -10550721.993 10 0 59560 81000.00000 0 -24350426.795 57912.145 -7604715.830 10 0 59560 81900.00000 0 -25106057.033 103509.921 -4511017.622 10 0 59560 82800.00000 0 -25470608.427 221165.088 -1329688.361 10 0 59560 83700.00000 0 -25432505.180 356927.275 1877475.622 10 0 59560 84600.00000 0 -24993433.260 455920.496 5048144.969 10 0 59560 85500.00000 0 -24168275.253 464914.132 8120672.418 10 0 59561 0.00000 0 -22984510.001 334826.128 11035296.330 10 0 59561 900.00000 0 -21481100.927 23051.226 13735310.088 10 0 59561 1800.00000 0 -19706921.070 -504485.293 16168169.912 10 0 59561 2700.00000 0 -17718778.607 -1271636.864 18286524.214 10 0 59561 3600.00000 0 -15579127.182 -2290780.602 20049139.960 10 0 59561 4500.00000 0 -13353556.557 -3562052.421 21421709.212 10 0 59561 5400.00000 0 -11108168.884 -5073105.925 22377519.735 10 0 59561 6300.00000 0 -8906950.447 -6799406.573 22897976.576 10 0 59561 7200.00000 0 -6809248.832 -8705049.862 22972964.484 10 0 59561 8100.00000 0 -4867460.746 -10744070.256 22601044.259 10 0 59561 9000.00000 0 -3125026.672 -12862186.838 21789479.333 10 0 59561 9900.00000 0 -1614815.610 -14998913.143 20554092.161 10 0 59561 10800.00000 0 -357966.461 -17089943.355 18918953.342 10 0 59561 11700.00000 0 636766.590 -19069715.261 16915909.544 10 0 59561 12600.00000 0 1373138.607 -20874042.785 14583959.573 10 0 59561 13500.00000 0 1867004.693 -22442707.982 11968490.825 10 0 59561 14400.00000 0 2145395.887 -23721903.914 9120391.194 10 0 59561 15300.00000 0 2245120.693 -24666426.053 6095054.080 10 0 59561 16200.00000 0 2210952.866 -25241520.466 2951296.255 10 0 59561 17100.00000 0 2093483.431 -25424311.501 -249789.907 10 0 59561 18000.00000 0 1946728.998 -25204749.410 -3446026.887 10 0 59561 18900.00000 0 1825598.589 -24586038.714 -6575361.594 10 0 59561 19800.00000 0 1783326.936 -23584529.932 -9577070.167 10 0 59561 20700.00000 0 1868983.325 -22229079.905 -12392934.306 10 0 59561 21600.00000 0 2125161.607 -20559908.152 -14968366.411 10 0 59561 22500.00000 0 2585949.075 -18626997.622 -17253461.982 10 0 59561 23400.00000 0 3275259.919 -16488107.055 -19203959.398 10 0 59561 24300.00000 0 4205603.509 -14206477.940 -20782089.282 10 0 59561 25200.00000 0 5377339.484 -11848331.401 -21957297.969 10 0 59561 26100.00000 0 6778451.266 -9480258.696 -22706831.976 10 0 59561 27000.00000 0 8384848.122 -7166612.984 -23016173.114 10 0 59561 27900.00000 0 10161184.061 -4967009.655 -22879316.521 10 0 59561 28800.00000 0 12062160.480 -2934037.892 -22298886.677 10 0 59561 29700.00000 0 14034259.548 -1111277.254 -21286089.266 10 0 59561 30600.00000 0 16017837.497 468299.566 -19860499.537 10 0 59561 31500.00000 0 17949491.908 1783472.343 -18049690.700 10 0 59561 32400.00000 0 19764605.548 2825420.596 -15888708.694 10 0 59561 33300.00000 0 21399961.656 3597846.212 -13419402.452 10 0 59561 34200.00000 0 22796322.093 4116566.830 -10689621.634 10 0 59561 35100.00000 0 23900860.896 4408597.442 -7752296.385 10 0 59561 36000.00000 0 24669351.290 4510759.091 -4664416.128 10 0 59561 36900.00000 0 25068014.038 4467873.462 -1485926.758 10 0 59561 37800.00000 0 25074948.880 4330619.846 1721432.596 10 0 59561 38700.00000 0 24681087.986 4153145.395 4895330.607 10 0 59561 39600.00000 0 23890630.369 3990530.286 7974058.778 10 0 59561 40500.00000 0 22720937.957 3896215.803 10897736.316 10 0 59561 41400.00000 0 21201896.768 3919505.149 13609480.762 10 0 59561 42300.00000 0 19374769.277 4103243.826 16056520.802 10 0 59561 43200.00000 0 17290585.574 4481778.912 18191229.014 10 0 59561 44100.00000 0 15008140.401 5079284.775 19972053.934 10 0 59561 45000.00000 0 12591679.810 5908527.176 21364332.872 10 0 59561 45900.00000 0 10108374.155 6970119.145 22340969.504 10 0 59561 46800.00000 0 7625682.968 8252301.144 22882963.003 10 0 59561 47700.00000 0 5208721.776 9731255.812 22979778.419 10 0 59561 48600.00000 0 2917740.541 11371944.958 22629551.260 10 0 59561 49500.00000 0 805818.561 13129434.481 21839122.394 10 0 59561 50400.00000 0 -1083128.466 14950652.115 20623902.725 10 0 59561 51300.00000 0 -2715946.895 16776504.744 19007570.361 10 0 59561 52200.00000 0 -4071383.378 18544266.751 17021606.232 10 0 59561 53100.00000 0 -5140716.545 20190139.271 14704677.305 10 0 59561 54000.00000 0 -5927857.232 21651873.017 12101879.527 10 0 59561 54900.00000 0 -6448914.695 22871344.531 9263855.387 10 0 59561 55800.00000 0 -6731248.787 23796977.535 6245803.666 10 0 59561 56700.00000 0 -6812049.785 24385907.643 3106401.007 10 0 59561 57600.00000 0 -6736507.414 24605799.485 -93343.231 10 0 59561 58500.00000 0 -6555647.883 24436239.993 -3291275.954 10 0 59561 59400.00000 0 -6323931.606 23869649.560 -6425309.563 10 0 59561 60300.00000 0 -6096714.199 22911673.157 -9434627.570 10 0 59561 61200.00000 0 -5927678.773 21581035.393 -12260862.865 10 0 59561 62100.00000 0 -5866348.458 19908866.026 -14849225.842 10 0 59561 63000.00000 0 -5955784.401 17937524.445 -17149560.808 10 0 59561 63900.00000 0 -6230566.302 15718972.494 -19117310.660 10 0 59561 64800.00000 0 -6715140.502 13312763.473 -20714371.995 10 0 59561 65700.00000 0 -7422605.058 10783730.790 -21909824.993 10 0 59561 66600.00000 0 -8353982.881 8199471.884 -22680524.885 10 0 59561 67500.00000 0 -9498013.683 5627731.097 -23011544.504 10 0 59561 68400.00000 0 -10831474.022 3133789.028 -22896460.087 10 0 59561 69300.00000 0 -12320012.820 777965.521 -22337475.216 10 0 59561 70200.00000 0 -13919468.485 -1386661.472 -21345380.672 10 0 59561 71100.00000 0 -15577613.890 -3316227.796 -19939350.707 10 0 59561 72000.00000 0 -17236257.521 -4977664.989 -18146579.129 10 0 59561 72900.00000 0 -18833614.316 -6349827.452 -16001761.405 10 0 59561 73800.00000 0 -20306848.148 -7424118.819 -13546431.757 10 0 59561 74700.00000 0 -21594680.320 -8204591.947 -10828167.101 10 0 59561 75600.00000 0 -22639955.309 -8707518.923 -7899672.236 10 0 59561 76500.00000 0 -23392056.212 -8960449.452 -4817763.158 10 0 59561 77400.00000 0 -23809068.132 -9000797.498 -1642267.803 10 0 59561 78300.00000 0 -23859597.933 -8874016.034 1565134.762 10 0 59561 79200.00000 0 -23524172.843 -8631437.284 4742114.058 10 0 59561 80100.00000 0 -22796157.945 -8327870.171 7826903.105 10 0 59561 81000.00000 0 -21682152.692 -8019057.216 10759504.351 10 0 59561 81900.00000 0 -20201848.558 -7759099.264 13482862.528 10 0 59561 82800.00000 0 -18387352.728 -7597957.896 15943980.803 10 0 59561 83700.00000 0 -16282005.297 -7579142.210 18094957.926 10 0 59561 84600.00000 0 -13938738.809 -7737678.807 19893925.652 10 0 59561 85500.00000 0 -11418048.395 -8098451.817 21305867.777 99